sat.trackr.live / text

‹ back to catalog

HIMAWARI-9

NORAD 41836 · 2016-064A

PAYLOAD ACTIVE UNKNOWN

§ Identity

Operator
Country
JPN
Launch date
2016-11-02
Launch site
TANSC
Launch vehicle
Mass (kg)
RCS (m²)
38.79

Purposes: comms, earth_obs

External: N2YO · Heavens-Above · Gunter

§ Orbital elements

Epoch: 2026-09-19T21:12:38.679264Z

Period
1,436.12 min
Inclination
0.0166°
Eccentricity
0.0001870
Mean motion
1.00270052 rev/d
Perigee alt
35,779.2 km
Apogee alt
35,795.0 km
Semi-major
42,165.2 km
B*
0.0000e+0
RAAN
151.6919°
Arg perigee
78.5847°
Mean anomaly
227.4263°
Rev number
3,616

§ Raw data

HIMAWARI-91 41836U 16064A   26262.88378101  .00000000  00000+0  00000+0 0  99912 41836   0.0166 151.6919 0001870  78.5847 227.4263  1.00270052 36163

JSON: /api/v1/satellites/41836 · /tle

For live sub-satellite position, see the globe view (requires WebGL).

§ Visibility from observer

Set your observer location to see the next 7 days of passes ≥ 10°. The values pass through the URL so the page stays shareable.

No JS? Fill the form by hand. The geolocation button needs JavaScript.